Regional Weather Roundup
Issued by NWS New Orleans/Baton Rouge, LA

Home | Current Version | Previous Version | Text Only | Print | Product List | Glossary Off
Versions: 1 2 3 4 5 6 7 8 9 10 11 12 13 14 15 16 17 18 19 20 21 22 23 24 25 26 27 28 29 30 31 32 33 34 35 36 37 38 39 40 41 42 43 44 45 46 47 48 49 50

184
ASUS44 KLIX 221801
RWRLIX
NEW ORLEANS REGIONAL WEATHER ROUNDUP
NATIONAL WEATHER SERVICE NEW ORLEANS LA
1200 PM CST SAT NOV 22 2014

NOTE: "FAIR" INDICATES FEW OR NO CLOUDS BELOW 12,000 FEET WITH NO
      SIGNIFICANT WEATHER AND/OR OBSTRUCTIONS TO VISIBILITY.
      SKY/WX - SKY CONDITION AND SIGNIFICANT WEATHER.
      TMP - AIR TEMPERATURE.     DP    - DEWPOINT TEMPERATURE.
      RH  - RELATIVE HUMIDITY.   PRES  - PRESSURE.
      HI  - HEAT INDEX.          WCI   - WIND CHILL INDEX.

*  THESE STATIONS ARE NOT NWS OR FAA STATIONS AND ARE NOT UNDER
   NWS QUALITY CONTROL.

LAZ038-040-048-061>063-065>067-069-221900-
SOUTHEAST LOUISIANA

CITY           SKY/WX    TMP DP  RH WIND       PRES   REMARKS
N.O. AUDUBON   NOT AVBL
N.O. INTL ARPT CLOUDY    68  58  70 E10       30.14F
6HR MIN TEMP:  55; 6HR MAX TEMP:  69;

N.O. LAKEFRONT CLOUDY    66  57  72 E16       30.15F
6HR MIN TEMP:  56; 6HR MAX TEMP:  66;

N.O. DOWNTOWN* MOCLDY    66  55  68 E8        30.15F
6HR MIN TEMP:  57; 6HR MAX TEMP:  66;

SLIDELL        CLOUDY    69  56  62 E10G20    30.16F
6HR MIN TEMP:  50; 6HR MAX TEMP:  69;

BATON ROUGE    CLOUDY    67  57  70 E21G28    30.12F
6HR MIN TEMP:  50; 6HR MAX TEMP:  68;

BOOTHVILLE     CLOUDY    69  63  81 E13       30.15F
6HR MIN TEMP:  59; 6HR MAX TEMP:  70;

BELLE CHASSE   CLOUDY    69  58  67 E15       30.14F
6HR MIN TEMP:  55; 6HR MAX TEMP:  71;

BOGALUSA*        N/A     71  53  53 SE6       30.17F
6HR MIN TEMP:  43; 6HR MAX TEMP:  71;

NEW ROADS*     NOT AVBL
GONZALES*      NOT AVBL
HAMMOND*       NOT AVBL
HOUMA*         CLOUDY    70  63  78 E17       30.13F
PORT FOURCHON* CLEAR     68  63  83 E10       30.14F

$$

MSZ070-080>082-221900-
SOUTHERN MISSISSIPPI

CITY           SKY/WX    TMP DP  RH WIND       PRES   REMARKS
MCCOMB         PTSUNNY   67  53  61 SE14G23   30.15F
6HR MIN TEMP:  50; 6HR MAX TEMP:  68;

GULFPORT       CLOUDY    67  56  67 E18       30.17F
6HR MIN TEMP:  52; 6HR MAX TEMP:  69;

BILOXI         PTSUNNY   69  56  64 E16       30.17F
6HR MIN TEMP:  53; 6HR MAX TEMP:  70;

PASCAGOULA     PTSUNNY   69  55  60 SE15G25   30.19F
6HR MIN TEMP:  49; 6HR MAX TEMP:  70;

STENNIS ARPT*  SUNNY     66  54  63 E12G23    30.17F

$$

COASTAL OBSERVATIONS
LAKE AND NEARSHORE STATIONS

STATION/POSITION TIME  TEMP    WIND        PRES    WAVE
                       AIR SEA DIR/SP/G            HT/PER
                 (UTC) (F)     (DEG/KT/KT) (MB)    (FT/S)
PASCAGOULA       1700   66      90/ 12/ 15 1022.6
WAVELAND YACHT   1700   62     110/ 19/ 23 1021.4
GRAND ISLE       1700   65 61   80/  7/ 10 1021.3
SOUTHWEST PASS   1700   72 71              1020.7
NEW CANAL        1700   66 54   80/  9/ 19 1021.8
SHELL BEACH      1700   65 52   90/ 16/ 20 1021.4

OFFSHORE STATIONS

STATION/POSITION TIME  TEMP    WIND        PRES    WAVE
                       AIR SEA DIR/SP/G            HT/PER
                 (UTC) (F)     (DEG/KT/KT) (MB)    (FT/S)
64 S DAUPHIN ISL 1704   70 73   90/ 17/ 21 1021.6    6/ 8

$$




USA.gov is the U.S. government's official web portal to all federal, state and local government web resources and services.